Time,TemperatureF,DewpointF,PressureIn,WindDirection,WindDirectionDegrees,WindSpeedMPH,WindSpeedGustMPH,Humidity,HourlyPrecipIn,Conditions,Clouds,dailyrainin,SolarRadiationWatts/m^2,SoftwareType,DateUTC
2013-03-30 00:00:00,34.8,29.3,30.03,WSW,255,4.6,4.6,80,0.00,,,0.01,0.0,WeatherDisplay:10.37,2013-03-30 04:00:00,
2013-03-30 00:02:00,34.8,29.3,30.03,WNW,287,4.0,4.0,80,0.00,RA,,0.00,0.0,WeatherDisplay:10.37,2013-03-30 04:02:00,
2013-03-30 00:07:00,34.8,29.3,30.03,West,271,5.8,5.8,80,0.00,RA,,0.00,0.0,WeatherDisplay:10.37,2013-03-30 04:07:00,
2013-03-30 00:12:00,34.8,29.0,30.03,West,259,5.8,5.8,79,0.00,,,0.00,0.0,WeatherDisplay:10.37,2013-03-30 04:12:00,
2013-03-30 00:17:00,34.8,29.0,30.03,West,281,5.8,5.8,79,0.00,,,0.00,0.0,WeatherDisplay:10.37,2013-03-30 04:17:00,
2013-03-30 00:22:00,34.8,29.0,30.04,WNW,285,3.5,3.5,79,0.00,RA,,0.01,0.0,WeatherDisplay:10.37,2013-03-30 04:22:00,
2013-03-30 00:27:00,34.8,29.0,30.04,WNW,285,3.5,3.5,79,0.00,RA,,0.01,0.0,WeatherDisplay:10.37,2013-03-30 04:27:00,
2013-03-30 00:32:00,34.8,29.3,30.04,West,272,3.5,3.5,80,0.00,,,0.01,0.0,WeatherDisplay:10.37,2013-03-30 04:32:00,
2013-03-30 00:37:00,34.7,29.2,30.04,WSW,253,4.0,4.0,80,0.00,,,0.01,0.0,WeatherDisplay:10.37,2013-03-30 04:37:00,
2013-03-30 00:42:00,34.7,29.2,30.04,WSW,250,2.3,2.3,80,0.00,,,0.01,0.0,WeatherDisplay:10.37,2013-03-30 04:42:00,
2013-03-30 00:47:00,34.6,28.8,30.04,WSW,256,3.5,3.5,79,0.00,,,0.01,0.0,WeatherDisplay:10.37,2013-03-30 04:47:00,
2013-03-30 00:52:00,34.5,28.7,30.04,WSW,256,1.2,1.2,79,0.00,,,0.01,0.0,WeatherDisplay:10.37,2013-03-30 04:52:00,
2013-03-30 00:57:00,34.4,28.9,30.04,WSW,256,1.2,1.2,80,0.00,,,0.01,0.0,WeatherDisplay:10.37,2013-03-30 04:57:00,
2013-03-30 01:02:00,34.1,29.2,30.04,WSW,256,1.2,1.2,82,0.01,,,0.01,0.0,WeatherDisplay:10.37,2013-03-30 05:02:00,
2013-03-30 01:08:00,33.8,28.9,30.03,West,263,1.2,1.9,82,0.01,,,0.01,0.0,WeatherDisplay:10.37,2013-03-30 05:08:00,
2013-03-30 01:13:00,33.6,28.7,30.04,West,263,2.3,2.3,82,0.01,,,0.01,0.0,WeatherDisplay:10.37,2013-03-30 05:13:00,
2013-03-30 01:18:00,33.4,28.5,30.04,West,263,0.0,0.0,82,0.01,,,0.01,0.0,WeatherDisplay:10.37,2013-03-30 05:18:00,
2013-03-30 01:23:00,33.1,28.8,30.03,West,263,1.0,0.0,84,0.00,,,0.01,0.0,WeatherDisplay:10.37,2013-03-30 05:23:00,
2013-03-30 01:28:00,32.8,28.5,30.03,West,263,1.2,0.0,84,0.00,,,0.01,0.0,WeatherDisplay:10.37,2013-03-30 05:28:00,
2013-03-30 01:33:00,32.6,28.3,30.03,West,263,2.3,2.3,84,0.00,,,0.01,0.0,WeatherDisplay:10.37,2013-03-30 05:33:00,
2013-03-30 01:38:00,32.4,28.4,30.03,West,263,1.0,0.0,85,0.00,,,0.01,0.0,WeatherDisplay:10.37,2013-03-30 05:38:00,
2013-03-30 01:43:00,32.2,28.5,30.03,West,263,0.0,0.0,86,0.00,,,0.01,0.0,WeatherDisplay:10.37,2013-03-30 05:43:00,
2013-03-30 01:48:00,32.1,28.4,30.03,West,263,0.0,0.0,86,0.00,,,0.01,0.0,WeatherDisplay:10.37,2013-03-30 05:48:00,
2013-03-30 01:53:00,31.9,28.2,30.03,West,263,1.2,1.2,86,0.00,,,0.01,0.0,WeatherDisplay:10.37,2013-03-30 05:53:00,
2013-03-30 01:58:00,31.7,28.0,30.03,West,263,2.3,2.3,86,0.00,,,0.01,0.0,WeatherDisplay:10.37,2013-03-30 05:58:00,
2013-03-30 02:03:00,31.6,27.9,30.03,West,263,2.3,2.3,86,0.00,,,0.01,0.0,WeatherDisplay:10.37,2013-03-30 06:03:00,
2013-03-30 02:08:00,31.6,27.9,30.03,West,263,2.3,2.3,86,0.00,,,0.01,0.0,WeatherDisplay:10.37,2013-03-30 06:08:00,
2013-03-30 02:13:00,31.6,27.9,30.03,West,263,3.5,3.5,86,0.00,,,0.01,0.0,WeatherDisplay:10.37,2013-03-30 06:13:00,
2013-03-30 02:18:00,31.7,28.0,30.03,West,263,2.3,2.3,86,0.00,,,0.01,0.0,WeatherDisplay:10.37,2013-03-30 06:18:00,
2013-03-30 02:23:00,31.7,27.7,30.04,West,263,3.5,3.5,85,0.00,,,0.01,0.0,WeatherDisplay:10.37,2013-03-30 06:23:00,
2013-03-30 02:28:00,31.8,27.8,30.04,West,263,4.0,4.0,85,0.00,,,0.01,0.0,WeatherDisplay:10.37,2013-03-30 06:28:00,
2013-03-30 02:33:00,31.9,27.9,30.04,West,263,3.5,3.5,85,0.00,,,0.01,0.0,WeatherDisplay:10.37,2013-03-30 06:33:00,
2013-03-30 02:38:00,31.9,27.9,30.04,West,263,3.5,3.5,85,0.00,,,0.01,0.0,WeatherDisplay:10.37,2013-03-30 06:38:00,
2013-03-30 02:43:00,31.9,27.9,30.04,West,264,3.5,3.5,85,0.00,,,0.01,0.0,WeatherDisplay:10.37,2013-03-30 06:43:00,
2013-03-30 02:48:00,31.9,27.9,30.04,West,261,3.5,3.5,85,0.00,,,0.01,0.0,WeatherDisplay:10.37,2013-03-30 06:48:00,
2013-03-30 02:53:00,31.9,27.9,30.04,West,263,4.6,4.6,85,0.00,,,0.01,0.0,WeatherDisplay:10.37,2013-03-30 06:53:00,
2013-03-30 02:58:00,31.9,27.9,30.04,West,262,4.0,4.0,85,0.00,,,0.01,0.0,WeatherDisplay:10.37,2013-03-30 06:58:00,
2013-03-30 03:03:00,32.0,28.0,30.04,West,263,4.0,4.0,85,0.00,,,0.01,0.0,WeatherDisplay:10.37,2013-03-30 07:03:00,
2013-03-30 03:08:00,32.0,28.0,30.04,West,263,3.5,3.5,85,0.00,,,0.01,0.0,WeatherDisplay:10.37,2013-03-30 07:08:00,
2013-03-30 03:13:00,32.0,28.0,30.03,West,263,3.5,3.5,85,0.00,,,0.01,0.0,WeatherDisplay:10.37,2013-03-30 07:13:00,
2013-03-30 03:18:00,32.1,28.1,30.04,West,263,3.5,3.5,85,0.00,,,0.01,0.0,WeatherDisplay:10.37,2013-03-30 07:18:00,
2013-03-30 03:23:00,32.1,27.8,30.03,West,263,3.5,3.5,84,0.00,,,0.01,0.0,WeatherDisplay:10.37,2013-03-30 07:23:00,
2013-03-30 03:28:00,32.1,27.8,30.03,West,263,2.3,2.3,84,0.00,,,0.01,0.0,WeatherDisplay:10.37,2013-03-30 07:28:00,
2013-03-30 03:33:00,32.0,27.7,30.03,West,263,3.5,3.5,84,0.00,,,0.01,0.0,WeatherDisplay:10.37,2013-03-30 07:33:00,
2013-03-30 03:38:00,31.9,27.6,30.03,West,263,2.3,2.3,84,0.00,,,0.01,0.0,WeatherDisplay:10.37,2013-03-30 07:38:00,
2013-03-30 03:43:00,31.7,27.4,30.03,West,263,0.0,0.0,84,0.00,,,0.01,0.0,WeatherDisplay:10.37,2013-03-30 07:43:00,
2013-03-30 03:48:00,31.4,27.4,30.03,West,263,2.3,0.0,85,0.00,,,0.01,0.0,WeatherDisplay:10.37,2013-03-30 07:48:00,
2013-03-30 03:53:00,31.3,27.3,30.03,West,263,0.0,0.0,85,0.00,,,0.01,0.0,WeatherDisplay:10.37,2013-03-30 07:53:00,
2013-03-30 03:58:00,31.1,27.1,30.03,West,263,0.0,0.0,85,0.00,,,0.01,0.0,WeatherDisplay:10.37,2013-03-30 07:58:00,
2013-03-30 04:03:00,30.8,27.1,30.03,West,263,1.2,1.2,86,0.00,,,0.01,0.0,WeatherDisplay:10.37,2013-03-30 08:03:00,
2013-03-30 04:08:00,30.5,26.8,30.03,West,263,0.0,0.0,86,0.00,,,0.01,0.0,WeatherDisplay:10.37,2013-03-30 08:08:00,
2013-03-30 04:13:00,30.2,26.8,30.03,West,263,1.0,1.0,87,0.00,,,0.01,0.0,WeatherDisplay:10.37,2013-03-30 08:13:00,
2013-03-30 04:18:00,29.8,26.4,30.03,West,263,1.2,0.0,87,0.00,,,0.01,0.0,WeatherDisplay:10.37,2013-03-30 08:18:00,
2013-03-30 04:23:00,29.5,26.4,30.03,West,263,0.0,0.0,88,0.00,,,0.01,0.0,WeatherDisplay:10.37,2013-03-30 08:23:00,
2013-03-30 04:28:00,29.2,26.1,30.03,West,263,2.0,2.0,88,0.00,,,0.01,0.0,WeatherDisplay:10.37,2013-03-30 08:28:00,
2013-03-30 04:33:00,28.9,26.1,30.03,West,263,1.2,0.0,89,0.00,,,0.01,0.0,WeatherDisplay:10.37,2013-03-30 08:33:00,
2013-03-30 04:38:00,28.7,25.9,30.03,West,263,1.2,1.2,89,0.00,,,0.01,0.0,WeatherDisplay:10.37,2013-03-30 08:38:00,
2013-03-30 04:43:00,28.5,25.7,30.03,West,263,0.0,0.0,89,0.00,,,0.01,0.0,WeatherDisplay:10.37,2013-03-30 08:43:00,
2013-03-30 04:48:00,28.4,25.8,30.04,West,263,1.2,1.2,90,0.00,,,0.01,0.0,WeatherDisplay:10.37,2013-03-30 08:48:00,
2013-03-30 04:53:00,28.2,25.6,30.04,West,263,1.0,1.0,90,0.00,,,0.01,0.0,WeatherDisplay:10.37,2013-03-30 08:53:00,
2013-03-30 04:58:00,28.0,25.4,30.04,West,263,0.0,0.0,90,0.00,,,0.01,0.0,WeatherDisplay:10.37,2013-03-30 08:58:00,
2013-03-30 05:03:00,27.9,25.6,30.04,West,263,0.0,0.0,91,0.00,,,0.01,0.0,WeatherDisplay:10.37,2013-03-30 09:03:00,
2013-03-30 05:08:00,27.8,25.5,30.04,West,263,1.2,1.2,91,0.00,,,0.01,0.0,WeatherDisplay:10.37,2013-03-30 09:08:00,
2013-03-30 05:13:00,27.6,25.3,30.04,West,263,0.0,0.0,91,0.00,,,0.01,0.0,WeatherDisplay:10.37,2013-03-30 09:13:00,
2013-03-30 05:18:00,27.6,25.3,30.04,West,263,0.0,0.0,91,0.00,,,0.01,0.0,WeatherDisplay:10.37,2013-03-30 09:18:00,
2013-03-30 05:23:00,27.5,25.2,30.04,West,263,0.0,0.0,91,0.00,,,0.01,0.0,WeatherDisplay:10.37,2013-03-30 09:23:00,
2013-03-30 05:28:00,27.4,25.1,30.04,West,263,0.0,0.0,91,0.00,,,0.01,0.0,WeatherDisplay:10.37,2013-03-30 09:28:00,
2013-03-30 05:34:00,27.3,25.3,30.04,West,263,0.0,0.0,92,0.00,,,0.01,0.0,WeatherDisplay:10.37,2013-03-30 09:34:00,
2013-03-30 05:39:00,27.2,25.2,30.04,West,263,1.2,1.2,92,0.00,,,0.01,0.0,WeatherDisplay:10.37,2013-03-30 09:39:00,
2013-03-30 05:44:00,27.1,25.1,30.04,West,263,0.0,0.0,92,0.00,,,0.01,0.0,WeatherDisplay:10.37,2013-03-30 09:44:00,
2013-03-30 05:49:00,27.0,25.0,30.04,West,263,0.0,0.0,92,0.00,,,0.01,0.0,WeatherDisplay:10.37,2013-03-30 09:49:00,
2013-03-30 05:54:00,27.0,25.0,30.04,West,263,0.0,0.0,92,0.00,,,0.01,0.0,WeatherDisplay:10.37,2013-03-30 09:54:00,
2013-03-30 06:00:00,26.8,24.8,30.04,West,263,0.0,0.0,92,0.00,,,0.01,0.0,WeatherDisplay:10.37,2013-03-30 10:00:00,
2013-03-30 06:05:00,26.7,24.7,30.05,West,263,0.0,0.0,92,0.00,,,0.01,0.0,WeatherDisplay:10.37,2013-03-30 10:05:00,
2013-03-30 06:10:00,26.5,24.5,30.05,West,263,0.0,0.0,92,0.00,CLR,,0.01,0.0,WeatherDisplay:10.37,2013-03-30 10:10:00,
2013-03-30 06:15:00,26.4,24.4,30.05,West,263,0.0,0.0,92,0.00,CLR,,0.01,0.0,WeatherDisplay:10.37,2013-03-30 10:15:00,
2013-03-30 06:20:00,26.4,24.4,30.05,West,263,0.0,0.0,92,0.00,CLR,,0.01,0.0,WeatherDisplay:10.37,2013-03-30 10:20:00,
2013-03-30 06:25:00,26.4,24.4,30.05,West,263,0.0,0.0,92,0.00,CLR,,0.01,0.0,WeatherDisplay:10.37,2013-03-30 10:25:00,
2013-03-30 06:30:00,26.3,24.3,30.05,West,263,0.0,0.0,92,0.00,CLR,,0.01,0.0,WeatherDisplay:10.37,2013-03-30 10:30:00,
2013-03-30 06:35:00,26.3,24.6,30.05,West,263,0.0,0.0,93,0.00,CLR,,0.01,0.0,WeatherDisplay:10.37,2013-03-30 10:35:00,
2013-03-30 06:40:00,26.2,24.5,30.05,West,263,0.0,0.0,93,0.00,CLR,,0.01,5.0,WeatherDisplay:10.37,2013-03-30 10:40:00,
2013-03-30 06:45:00,26.1,24.4,30.05,West,263,0.0,0.0,93,0.00,CLR,,0.01,9.0,WeatherDisplay:10.37,2013-03-30 10:45:00,
2013-03-30 06:50:00,26.1,24.4,30.06,West,263,0.0,0.0,93,0.00,CLR,,0.01,11.0,WeatherDisplay:10.37,2013-03-30 10:50:00,
2013-03-30 06:55:00,26.1,24.4,30.06,West,263,1.0,1.0,93,0.00,CLR,,0.01,14.0,WeatherDisplay:10.37,2013-03-30 10:55:00,
2013-03-30 07:00:00,26.0,24.3,30.06,West,263,0.0,0.0,93,0.00,CLR,,0.01,16.0,WeatherDisplay:10.37,2013-03-30 11:00:00,
2013-03-30 07:05:00,26.0,24.3,30.06,West,263,2.3,2.3,93,0.00,CLR,,0.01,23.0,WeatherDisplay:10.37,2013-03-30 11:05:00,
2013-03-30 07:10:00,25.9,24.2,30.06,West,263,1.2,0.0,93,0.00,CLR,,0.01,44.0,WeatherDisplay:10.37,2013-03-30 11:10:00,
2013-03-30 07:15:00,25.9,24.2,30.06,West,263,0.0,0.0,93,0.00,CLR,,0.01,56.0,WeatherDisplay:10.37,2013-03-30 11:15:00,
2013-03-30 07:20:00,26.1,24.4,30.06,West,263,0.0,0.0,93,0.00,CLR,,0.01,51.0,WeatherDisplay:10.37,2013-03-30 11:20:00,
2013-03-30 07:25:00,26.5,25.0,30.06,West,263,3.5,3.5,94,0.00,CLR,,0.01,54.0,WeatherDisplay:10.37,2013-03-30 11:25:00,
2013-03-30 07:30:00,27.0,25.5,30.07,West,263,0.0,0.0,94,0.00,CLR,,0.01,58.0,WeatherDisplay:10.37,2013-03-30 11:30:00,
2013-03-30 07:35:00,27.4,25.9,30.07,West,263,0.0,0.0,94,0.00,CLR,,0.01,54.0,WeatherDisplay:10.37,2013-03-30 11:35:00,
2013-03-30 07:40:00,27.9,26.7,30.07,West,263,0.0,0.0,95,0.00,CLR,,0.01,65.0,WeatherDisplay:10.37,2013-03-30 11:40:00,
2013-03-30 07:45:00,28.3,26.8,30.07,West,263,2.3,2.3,94,0.00,CLR,,0.01,76.0,WeatherDisplay:10.37,2013-03-30 11:45:00,
2013-03-30 07:50:00,28.6,27.1,30.06,West,263,0.0,0.0,94,0.00,CLR,,0.01,76.0,WeatherDisplay:10.37,2013-03-30 11:50:00,
2013-03-30 07:55:00,28.9,27.4,30.06,West,263,0.0,0.0,94,0.00,CLR,,0.01,111.0,WeatherDisplay:10.37,2013-03-30 11:55:00,
2013-03-30 08:00:00,29.2,27.4,30.06,West,263,1.2,1.2,93,0.00,CLR,,0.01,91.0,WeatherDisplay:10.37,2013-03-30 12:00:00,
2013-03-30 08:05:00,29.6,27.8,30.06,West,263,1.2,0.0,93,0.00,OVC,,0.01,120.0,WeatherDisplay:10.37,2013-03-30 12:05:00,
2013-03-30 08:10:00,29.9,28.1,30.06,West,263,0.0,0.0,93,0.00,OVC,,0.01,116.0,WeatherDisplay:10.37,2013-03-30 12:10:00,
2013-03-30 08:15:00,30.3,28.3,30.06,West,263,1.0,1.0,92,0.00,OVC,,0.01,91.0,WeatherDisplay:10.37,2013-03-30 12:15:00,
2013-03-30 08:20:00,31.0,28.9,30.06,NW,325,3.5,3.5,92,0.00,OVC,,0.01,160.0,WeatherDisplay:10.37,2013-03-30 12:20:00,
2013-03-30 08:25:00,31.7,29.4,30.07,WNW,290,3.5,3.5,91,0.00,OVC,,0.01,202.0,WeatherDisplay:10.37,2013-03-30 12:25:00,
2013-03-30 08:30:00,32.4,29.8,30.07,West,275,4.6,4.6,90,0.00,OVC,,0.01,336.0,WeatherDisplay:10.37,2013-03-30 12:30:00,
2013-03-30 08:35:00,33.2,30.0,30.06,NNW,328,5.0,5.0,88,0.00,OVC,,0.01,353.0,WeatherDisplay:10.37,2013-03-30 12:35:00,
2013-03-30 08:40:00,33.9,30.2,30.06,West,271,4.0,4.0,86,0.00,OVC,,0.01,366.0,WeatherDisplay:10.37,2013-03-30 12:40:00,
2013-03-30 08:45:00,34.4,30.1,30.07,WNW,300,8.1,8.1,84,0.00,OVC,,0.01,352.0,WeatherDisplay:10.37,2013-03-30 12:45:00,
2013-03-30 08:50:00,35.0,29.8,30.06,WNW,282,9.0,9.0,81,0.00,OVC,,0.01,308.0,WeatherDisplay:10.37,2013-03-30 12:50:00,
2013-03-30 08:55:00,35.3,29.7,30.07,West,269,9.2,9.2,80,0.00,OVC,,0.01,380.0,WeatherDisplay:10.37,2013-03-30 12:55:00,
2013-03-30 09:00:00,35.5,29.6,30.07,West,275,8.1,8.1,79,0.00,OVC,,0.01,434.0,WeatherDisplay:10.37,2013-03-30 13:00:00,
2013-03-30 09:05:00,35.8,29.9,30.07,WNW,286,2.3,2.3,79,0.00,OVC,,0.01,454.0,WeatherDisplay:10.37,2013-03-30 13:05:00,
2013-03-30 09:10:00,36.2,30.0,30.07,West,266,6.0,6.0,78,0.00,OVC,,0.01,473.0,WeatherDisplay:10.37,2013-03-30 13:10:00,
2013-03-30 09:15:00,36.4,29.9,30.07,West,275,9.2,9.2,77,0.00,OVC,,0.01,490.0,WeatherDisplay:10.37,2013-03-30 13:15:00,
2013-03-30 09:20:00,36.7,30.2,30.07,WSW,257,6.0,6.0,77,0.00,OVC,,0.01,508.0,WeatherDisplay:10.37,2013-03-30 13:20:00,
2013-03-30 09:25:00,37.0,30.1,30.07,West,267,6.9,6.9,76,0.00,OVC,,0.01,524.0,WeatherDisplay:10.37,2013-03-30 13:25:00,
2013-03-30 09:30:00,37.2,30.0,30.07,West,262,9.0,9.0,75,0.00,OVC,,0.01,538.0,WeatherDisplay:10.37,2013-03-30 13:30:00,
2013-03-30 09:35:00,37.3,30.1,30.07,WNW,288,5.8,5.8,75,0.00,OVC,,0.01,552.0,WeatherDisplay:10.37,2013-03-30 13:35:00,
2013-03-30 09:40:00,37.6,30.1,30.07,West,277,10.0,10.0,74,0.00,OVC,,0.01,568.0,WeatherDisplay:10.37,2013-03-30 13:40:00,
2013-03-30 09:45:00,37.6,29.7,30.07,West,277,9.2,9.2,73,0.00,OVC,,0.01,582.0,WeatherDisplay:10.37,2013-03-30 13:45:00,
2013-03-30 09:50:00,37.6,30.1,30.07,West,263,9.2,9.2,74,0.00,OVC,,0.01,592.0,WeatherDisplay:10.37,2013-03-30 13:50:00,
2013-03-30 09:55:00,37.7,30.2,30.07,WSW,239,6.9,6.9,74,0.00,OVC,,0.01,610.0,WeatherDisplay:10.37,2013-03-30 13:55:00,
2013-03-30 10:00:00,38.2,30.6,30.07,North,355,2.3,2.3,74,0.00,OVC,,0.01,601.0,WeatherDisplay:10.37,2013-03-30 14:00:00,
2013-03-30 10:05:00,38.8,30.5,30.07,NW,310,4.6,4.6,72,0.00,OVC,,0.01,631.0,WeatherDisplay:10.37,2013-03-30 14:05:00,
2013-03-30 10:10:00,39.3,30.7,30.07,East,84,5.8,5.8,71,0.00,OVC,,0.01,647.0,WeatherDisplay:10.37,2013-03-30 14:10:00,
2013-03-30 10:15:00,39.8,30.8,30.07,WNW,302,2.3,0.0,70,0.00,OVC,,0.01,661.0,WeatherDisplay:10.37,2013-03-30 14:15:00,
2013-03-30 10:20:00,40.3,30.6,30.07,WSW,244,5.0,5.0,68,0.01,RA,,0.02,679.0,WeatherDisplay:10.37,2013-03-30 14:20:00,
2013-03-30 10:25:00,40.6,29.4,30.07,West,261,11.5,11.5,64,0.01,RA,,0.02,675.0,WeatherDisplay:10.37,2013-03-30 14:25:00,
2013-03-30 10:30:00,40.8,28.8,30.07,North,11,4.0,4.0,62,0.01,OVC,,0.02,698.0,WeatherDisplay:10.37,2013-03-30 14:30:00,
2013-03-30 10:35:00,41.0,29.0,30.07,WNW,302,6.9,6.9,62,0.01,OVC,,0.02,710.0,WeatherDisplay:10.37,2013-03-30 14:35:00,
2013-03-30 10:40:00,41.0,28.6,30.07,West,261,11.5,11.5,61,0.01,OVC,,0.02,724.0,WeatherDisplay:10.37,2013-03-30 14:40:00,
2013-03-30 10:45:00,40.7,27.9,30.07,West,274,11.5,11.5,60,0.01,SCT,,0.02,728.0,WeatherDisplay:10.37,2013-03-30 14:45:00,
2013-03-30 10:50:00,40.6,27.0,30.07,West,265,10.4,10.4,58,0.01,CLR,,0.02,742.0,WeatherDisplay:10.37,2013-03-30 14:50:00,
2013-03-30 10:56:00,40.7,26.6,30.07,West,276,11.0,11.0,57,0.01,CLR,,0.02,761.0,WeatherDisplay:10.37,2013-03-30 14:56:00,
2013-03-30 11:01:00,40.8,25.0,30.07,West,279,10.4,10.4,53,0.01,CLR,,0.02,780.0,WeatherDisplay:10.37,2013-03-30 15:01:00,
2013-03-30 11:06:00,41.2,26.2,30.07,WNW,295,6.9,6.9,55,0.01,CLR,,0.02,770.0,WeatherDisplay:10.37,2013-03-30 15:06:00,
2013-03-30 11:12:00,41.7,24.4,30.07,West,279,9.2,9.2,50,0.01,CLR,,0.02,780.0,WeatherDisplay:10.37,2013-03-30 15:12:00,
2013-03-30 11:17:00,42.0,25.2,30.06,NNW,333,8.1,8.1,51,0.01,CLR,,0.02,802.0,WeatherDisplay:10.37,2013-03-30 15:17:00,
2013-03-30 11:22:00,42.4,24.6,30.06,NW,322,5.8,5.8,49,0.00,CLR,,0.02,807.0,WeatherDisplay:10.37,2013-03-30 15:22:00,
2013-03-30 11:27:00,42.7,24.8,30.06,North,360,5.8,5.8,49,0.00,CLR,,0.02,824.0,WeatherDisplay:10.37,2013-03-30 15:27:00,
2013-03-30 11:32:00,42.7,24.8,30.06,WNW,299,6.0,6.0,49,0.00,CLR,,0.02,826.0,WeatherDisplay:10.37,2013-03-30 15:32:00,
2013-03-30 11:37:00,42.8,24.9,30.06,NW,309,4.6,4.6,49,0.00,CLR,,0.02,817.0,WeatherDisplay:10.37,2013-03-30 15:37:00,
2013-03-30 11:42:00,43.1,22.6,30.06,NW,311,8.1,8.1,44,0.00,CLR,,0.02,840.0,WeatherDisplay:10.37,2013-03-30 15:42:00,
2013-03-30 11:47:00,43.3,22.8,30.06,East,80,6.9,6.9,44,0.00,CLR,,0.02,838.0,WeatherDisplay:10.37,2013-03-30 15:47:00,
2013-03-30 11:52:00,43.6,23.6,30.06,NW,308,10.0,10.0,45,0.00,CLR,,0.02,858.0,WeatherDisplay:10.37,2013-03-30 15:52:00,
2013-03-30 11:57:00,43.7,23.7,30.06,NNW,328,3.5,3.5,45,0.00,CLR,,0.02,840.0,WeatherDisplay:10.37,2013-03-30 15:57:00,
2013-03-30 12:02:00,44.0,21.8,30.06,NW,325,6.9,6.9,41,0.00,CLR,,0.02,847.0,WeatherDisplay:10.37,2013-03-30 16:02:00,
2013-03-30 12:07:00,43.8,21.0,30.06,WNW,295,8.1,8.1,40,0.00,CLR,,0.02,874.0,WeatherDisplay:10.37,2013-03-30 16:07:00,
2013-03-30 12:12:00,43.2,21.1,30.06,West,278,12.7,12.7,41,0.00,CLR,,0.02,874.0,WeatherDisplay:10.37,2013-03-30 16:12:00,
2013-03-30 12:17:00,43.1,22.6,30.06,West,272,4.6,4.6,44,0.00,CLR,,0.02,877.0,WeatherDisplay:10.37,2013-03-30 16:17:00,
2013-03-30 12:22:00,43.5,24.6,30.06,North,5,6.9,6.9,47,0.00,CLR,,0.02,893.0,WeatherDisplay:10.37,2013-03-30 16:22:00,
2013-03-30 12:27:00,44.0,25.0,30.05,NE,55,8.1,8.1,47,0.00,CLR,,0.02,882.0,WeatherDisplay:10.37,2013-03-30 16:27:00,
2013-03-30 12:32:00,44.4,24.9,30.05,NW,317,8.1,8.1,46,0.00,CLR,,0.02,868.0,WeatherDisplay:10.37,2013-03-30 16:32:00,
2013-03-30 12:38:00,44.8,24.2,30.05,NNW,328,12.7,12.7,44,0.00,CLR,,0.02,870.0,WeatherDisplay:10.37,2013-03-30 16:38:00,
2013-03-30 12:43:00,44.9,23.7,30.05,WNW,296,12.7,12.7,43,0.00,CLR,,0.02,893.0,WeatherDisplay:10.37,2013-03-30 16:43:00,
2013-03-30 12:48:00,44.5,23.4,30.05,WNW,283,8.1,8.1,43,0.00,CLR,,0.02,874.0,WeatherDisplay:10.37,2013-03-30 16:48:00,
2013-03-30 12:53:00,44.3,23.2,30.05,WNW,291,5.8,5.8,43,0.00,CLR,,0.02,865.0,WeatherDisplay:10.37,2013-03-30 16:53:00,
2013-03-30 12:58:00,44.5,22.8,30.05,NNW,327,6.9,6.9,42,0.00,CLR,,0.02,868.0,WeatherDisplay:10.37,2013-03-30 16:58:00,
2013-03-30 13:03:00,44.8,23.1,30.05,NW,317,8.1,8.1,42,0.00,CLR,,0.02,868.0,WeatherDisplay:10.37,2013-03-30 17:03:00,
2013-03-30 13:08:00,45.2,22.3,30.05,West,280,8.1,8.1,40,0.00,CLR,,0.02,879.0,WeatherDisplay:10.37,2013-03-30 17:08:00,
2013-03-30 13:13:00,45.6,22.6,30.05,West,276,12.7,12.7,40,0.00,CLR,,0.02,881.0,WeatherDisplay:10.37,2013-03-30 17:13:00,
2013-03-30 13:18:00,45.2,22.3,30.05,West,280,10.4,10.4,40,0.00,CLR,,0.02,916.0,WeatherDisplay:10.37,2013-03-30 17:18:00,
2013-03-30 13:23:00,45.4,21.9,30.04,WSW,244,9.2,9.2,39,0.00,CLR,,0.02,909.0,WeatherDisplay:10.37,2013-03-30 17:23:00,
2013-03-30 13:29:00,45.2,21.7,30.04,West,275,13.0,13.0,39,0.00,CLR,,0.02,216.0,WeatherDisplay:10.37,2013-03-30 17:29:00,
2013-03-30 13:34:00,44.5,21.6,30.04,WNW,286,13.8,13.8,40,0.00,FEW,,0.02,965.0,WeatherDisplay:10.37,2013-03-30 17:34:00,
2013-03-30 13:39:00,44.3,22.6,30.04,NW,315,11.5,11.5,42,0.00,FEW,,0.02,944.0,WeatherDisplay:10.37,2013-03-30 17:39:00,
2013-03-30 13:44:00,44.4,22.1,30.04,WSW,239,9.0,9.0,41,0.00,CLR,,0.02,932.0,WeatherDisplay:10.37,2013-03-30 17:44:00,
2013-03-30 13:49:00,44.9,22.0,30.04,West,277,4.0,4.0,40,0.00,CLR,,0.02,534.0,WeatherDisplay:10.37,2013-03-30 17:49:00,
2013-03-30 13:54:00,45.2,21.7,30.04,West,273,9.0,9.0,39,0.00,CLR,,0.02,932.0,WeatherDisplay:10.37,2013-03-30 17:54:00,
2013-03-30 13:59:00,45.4,21.2,30.04,West,265,10.4,10.4,38,0.00,CLR,,0.02,898.0,WeatherDisplay:10.37,2013-03-30 17:59:00,
2013-03-30 14:04:00,45.4,22.5,30.04,WSW,242,8.1,8.1,40,0.00,CLR,,0.02,886.0,WeatherDisplay:10.37,2013-03-30 18:04:00,
2013-03-30 14:09:00,45.2,21.7,30.03,WSW,257,11.5,11.5,39,0.00,CLR,,0.02,139.0,WeatherDisplay:10.37,2013-03-30 18:09:00,
2013-03-30 14:14:00,44.4,21.6,30.03,West,262,6.9,6.9,40,0.00,SCT,,0.02,930.0,WeatherDisplay:10.37,2013-03-30 18:14:00,
2013-03-30 14:19:00,45.0,22.1,30.03,West,279,12.0,12.0,40,0.00,FEW,,0.02,919.0,WeatherDisplay:10.37,2013-03-30 18:19:00,
2013-03-30 14:24:00,45.4,21.9,30.03,WSW,240,8.1,8.1,39,0.00,CLR,,0.02,893.0,WeatherDisplay:10.37,2013-03-30 18:24:00,
2013-03-30 14:29:00,45.8,22.2,30.03,NNW,330,9.2,9.2,39,0.00,CLR,,0.02,144.0,WeatherDisplay:10.37,2013-03-30 18:29:00,
2013-03-30 14:34:00,45.8,21.6,30.03,WSW,240,6.9,6.9,38,0.00,FEW,,0.02,831.0,WeatherDisplay:10.37,2013-03-30 18:34:00,
2013-03-30 14:39:00,46.2,21.3,30.03,West,270,7.0,7.0,37,0.00,CLR,,0.02,796.0,WeatherDisplay:10.37,2013-03-30 18:39:00,
2013-03-30 14:44:00,46.5,21.6,30.03,West,268,10.4,10.4,37,0.00,CLR,,0.02,761.0,WeatherDisplay:10.37,2013-03-30 18:44:00,
2013-03-30 14:49:00,46.8,21.9,30.02,West,267,8.1,8.1,37,0.00,CLR,,0.02,858.0,WeatherDisplay:10.37,2013-03-30 18:49:00,
2013-03-30 14:54:00,47.1,21.5,30.02,NW,322,5.8,5.8,36,0.00,CLR,,0.02,807.0,WeatherDisplay:10.37,2013-03-30 18:54:00,
2013-03-30 14:59:00,47.2,21.6,30.03,West,270,6.9,6.9,36,0.00,CLR,,0.02,800.0,WeatherDisplay:10.37,2013-03-30 18:59:00,
2013-03-30 15:04:00,47.3,21.7,30.02,NNW,334,6.9,6.9,36,0.00,CLR,,0.02,782.0,WeatherDisplay:10.37,2013-03-30 19:04:00,
2013-03-30 15:09:00,47.3,21.0,30.02,WNW,283,10.4,10.4,35,0.00,CLR,,0.02,817.0,WeatherDisplay:10.37,2013-03-30 19:09:00,
2013-03-30 15:14:00,47.3,22.3,30.02,West,262,5.0,5.0,37,0.00,CLR,,0.02,784.0,WeatherDisplay:10.37,2013-03-30 19:14:00,
2013-03-30 15:20:00,47.4,21.7,30.02,WNW,293,4.0,4.0,36,0.00,CLR,,0.02,694.0,WeatherDisplay:10.37,2013-03-30 19:20:00,
2013-03-30 15:25:00,47.2,21.6,30.02,NNW,338,6.9,6.9,36,0.00,CLR,,0.02,763.0,WeatherDisplay:10.37,2013-03-30 19:25:00,
2013-03-30 15:30:00,47.2,21.6,30.01,North,5,5.8,5.8,36,0.00,SCT,,0.02,636.0,WeatherDisplay:10.37,2013-03-30 19:30:00,
2013-03-30 15:35:00,47.5,21.2,30.01,WNW,289,5.8,5.8,35,0.00,SCT,,0.02,673.0,WeatherDisplay:10.37,2013-03-30 19:35:00,
2013-03-30 15:40:00,47.7,20.7,30.01,West,277,7.0,7.0,34,0.00,FEW,,0.02,659.0,WeatherDisplay:10.37,2013-03-30 19:40:00,
2013-03-30 15:45:00,47.8,20.1,30.01,West,273,6.9,6.9,33,0.00,CLR,,0.02,652.0,WeatherDisplay:10.37,2013-03-30 19:45:00,
2013-03-30 15:50:00,47.7,19.2,30.01,West,273,9.2,9.2,32,0.00,FEW,,0.02,638.0,WeatherDisplay:10.37,2013-03-30 19:50:00,
2013-03-30 15:55:00,47.6,20.6,30.01,NW,317,11.0,11.0,34,0.00,FEW,,0.02,605.0,WeatherDisplay:10.37,2013-03-30 19:55:00,
2013-03-30 16:00:00,47.7,20.7,30.01,NW,314,5.8,5.8,34,0.00,FEW,,0.02,589.0,WeatherDisplay:10.37,2013-03-30 20:00:00,
2013-03-30 16:05:00,47.9,22.2,30.01,NE,46,3.5,3.5,36,0.00,FEW,,0.02,591.0,WeatherDisplay:10.37,2013-03-30 20:05:00,
2013-03-30 16:10:00,48.4,22.0,30.01,WNW,294,8.1,8.1,35,0.00,FEW,,0.02,564.0,WeatherDisplay:10.37,2013-03-30 20:10:00,
2013-03-30 16:15:00,48.3,21.2,30.01,North,5,6.9,6.9,34,0.00,SCT,,0.02,559.0,WeatherDisplay:10.37,2013-03-30 20:15:00,
2013-03-30 16:20:00,48.3,21.9,30.00,NW,321,4.0,4.0,35,0.00,SCT,,0.02,538.0,WeatherDisplay:10.37,2013-03-30 20:20:00,
2013-03-30 16:25:00,48.4,22.0,30.01,WNW,283,8.0,8.0,35,0.00,SCT,,0.02,512.0,WeatherDisplay:10.37,2013-03-30 20:25:00,
2013-03-30 16:30:00,48.2,21.1,30.00,West,263,8.0,8.0,34,0.00,SCT,,0.02,499.0,WeatherDisplay:10.37,2013-03-30 20:30:00,
2013-03-30 16:35:00,47.9,20.8,30.00,West,267,8.1,8.1,34,0.00,SCT,,0.02,480.0,WeatherDisplay:10.37,2013-03-30 20:35:00,
2013-03-30 16:40:00,47.4,20.4,30.01,WSW,254,9.2,9.2,34,0.00,SCT,,0.02,469.0,WeatherDisplay:10.37,2013-03-30 20:40:00,
2013-03-30 16:45:00,47.1,20.1,30.01,WNW,287,8.0,8.0,34,0.00,SCT,,0.02,441.0,WeatherDisplay:10.37,2013-03-30 20:45:00,
2013-03-30 16:50:00,46.9,19.3,30.01,NNW,347,5.8,5.8,33,0.00,SCT,,0.02,387.0,WeatherDisplay:10.37,2013-03-30 20:50:00,
2013-03-30 16:55:00,46.7,19.1,30.01,West,264,8.1,8.1,33,0.00,BKN,,0.02,359.0,WeatherDisplay:10.37,2013-03-30 20:55:00,
2013-03-30 17:00:00,46.7,19.8,30.01,WNW,283,6.9,6.9,34,0.00,BKN,,0.02,221.0,WeatherDisplay:10.37,2013-03-30 21:00:00,
2013-03-30 17:05:00,46.8,20.6,30.01,NW,304,5.0,5.0,35,0.00,BKN,,0.02,248.0,WeatherDisplay:10.37,2013-03-30 21:05:00,
2013-03-30 17:10:00,46.8,20.6,30.01,NNE,14,8.1,8.1,35,0.00,BKN,,0.02,216.0,WeatherDisplay:10.37,2013-03-30 21:10:00,
2013-03-30 17:15:00,46.8,19.9,30.01,West,270,8.1,8.1,34,0.00,BKN,,0.02,199.0,WeatherDisplay:10.37,2013-03-30 21:15:00,
2013-03-30 17:20:00,46.7,20.5,30.01,West,275,3.5,3.5,35,0.00,BKN,,0.02,107.0,WeatherDisplay:10.37,2013-03-30 21:20:00,
2013-03-30 17:25:00,46.4,19.5,30.01,West,275,8.0,8.0,34,0.00,BKN,,0.02,74.0,WeatherDisplay:10.37,2013-03-30 21:25:00,
2013-03-30 17:30:00,46.1,20.6,30.01,WSW,255,5.8,5.8,36,0.00,BKN,,0.02,172.0,WeatherDisplay:10.37,2013-03-30 21:30:00,
2013-03-30 17:35:00,45.9,20.4,30.01,NNW,328,5.0,5.0,36,0.00,BKN,,0.02,156.0,WeatherDisplay:10.37,2013-03-30 21:35:00,
2013-03-30 17:40:00,45.8,21.0,30.01,WNW,293,2.0,2.1,37,0.00,BKN,,0.02,188.0,WeatherDisplay:10.37,2013-03-30 21:40:00,
2013-03-30 17:45:00,45.8,21.0,30.01,West,279,5.0,5.0,37,0.00,BKN,,0.02,141.0,WeatherDisplay:10.37,2013-03-30 21:45:00,
2013-03-30 17:50:00,45.8,19.0,30.01,WSW,240,9.0,9.0,34,0.00,BKN,,0.02,65.0,WeatherDisplay:10.37,2013-03-30 21:50:00,
2013-03-30 17:55:00,45.6,20.1,30.01,West,261,7.0,7.0,36,0.00,BKN,,0.02,100.0,WeatherDisplay:10.37,2013-03-30 21:55:00,
2013-03-30 18:00:00,45.4,20.0,30.01,West,269,8.1,8.1,36,0.00,BKN,,0.02,72.0,WeatherDisplay:10.37,2013-03-30 22:00:00,
2013-03-30 18:05:00,45.2,18.5,30.01,West,269,4.6,4.6,34,0.00,BKN,,0.02,97.0,WeatherDisplay:10.37,2013-03-30 22:05:00,
2013-03-30 18:10:00,45.2,18.5,30.01,West,272,5.8,5.8,34,0.00,BKN,,0.02,74.0,WeatherDisplay:10.37,2013-03-30 22:10:00,
2013-03-30 18:15:00,45.2,18.5,30.01,West,272,4.0,4.0,34,0.00,BKN,,0.02,130.0,WeatherDisplay:10.37,2013-03-30 22:15:00,
2013-03-30 18:20:00,45.3,17.8,30.02,West,259,4.0,4.0,33,0.00,BKN,,0.02,120.0,WeatherDisplay:10.37,2013-03-30 22:20:00,
2013-03-30 18:25:00,45.1,16.2,30.01,West,266,9.2,9.2,31,0.00,BKN,,0.02,62.0,WeatherDisplay:10.37,2013-03-30 22:25:00,
2013-03-30 18:30:00,44.9,16.8,30.02,West,277,8.1,8.1,32,0.00,BKN,,0.02,46.0,WeatherDisplay:10.37,2013-03-30 22:30:00,
2013-03-30 18:35:00,44.8,16.7,30.02,West,266,5.8,5.8,32,0.00,BKN,,0.02,56.0,WeatherDisplay:10.37,2013-03-30 22:35:00,
2013-03-30 18:40:00,44.7,16.6,30.02,West,267,4.6,4.6,32,0.00,BKN,,0.02,46.0,WeatherDisplay:10.37,2013-03-30 22:40:00,
2013-03-30 18:45:00,44.7,18.0,30.02,West,267,3.0,3.0,34,0.00,BKN,,0.02,42.0,WeatherDisplay:10.37,2013-03-30 22:45:00,
2013-03-30 18:50:00,44.6,17.9,30.02,WNW,286,3.5,3.5,34,0.00,CLR,,0.02,18.0,WeatherDisplay:10.37,2013-03-30 22:50:00,
2013-03-30 18:55:00,44.5,18.5,30.02,WNW,286,2.3,2.3,35,0.00,CLR,,0.02,16.0,WeatherDisplay:10.37,2013-03-30 22:55:00,
2013-03-30 19:00:00,44.2,18.2,30.02,WNW,286,3.0,3.0,35,0.00,CLR,,0.02,12.0,WeatherDisplay:10.37,2013-03-30 23:00:00,
2013-03-30 19:05:00,43.8,17.9,30.02,WNW,286,3.0,3.0,35,0.00,CLR,,0.02,11.0,WeatherDisplay:10.37,2013-03-30 23:05:00,
2013-03-30 19:10:00,43.5,18.3,30.02,WNW,286,3.5,3.5,36,0.00,CLR,,0.02,7.0,WeatherDisplay:10.37,2013-03-30 23:10:00,
2013-03-30 19:15:00,43.3,20.0,30.02,WNW,286,1.0,1.0,39,0.00,CLR,,0.02,5.0,WeatherDisplay:10.37,2013-03-30 23:15:00,
2013-03-30 19:20:00,42.8,20.1,30.03,WNW,286,0.0,0.0,40,0.00,CLR,,0.02,0.0,WeatherDisplay:10.37,2013-03-30 23:20:00,
2013-03-30 19:25:00,42.5,18.6,30.03,WNW,286,0.0,0.0,38,0.00,CLR,,0.02,0.0,WeatherDisplay:10.37,2013-03-30 23:25:00,
2013-03-30 19:30:00,41.8,18.0,30.03,WNW,286,0.0,0.0,38,0.00,CLR,,0.02,0.0,WeatherDisplay:10.37,2013-03-30 23:30:00,
2013-03-30 19:36:00,40.8,18.9,30.03,WNW,286,0.0,0.0,41,0.00,CLR,,0.02,0.0,WeatherDisplay:10.37,2013-03-30 23:36:00,
2013-03-30 19:41:00,39.7,19.0,30.03,WNW,286,0.0,0.0,43,0.00,CLR,,0.02,0.0,WeatherDisplay:10.37,2013-03-30 23:41:00,
2013-03-30 19:46:00,38.9,18.3,30.03,WNW,286,0.0,0.0,43,0.00,CLR,,0.02,0.0,WeatherDisplay:10.37,2013-03-30 23:46:00,
2013-03-30 19:51:00,37.9,20.4,30.04,WNW,286,2.3,2.3,49,0.00,,,0.02,0.0,WeatherDisplay:10.37,2013-03-30 23:51:00,
2013-03-30 19:56:00,37.6,20.1,30.04,WNW,286,1.0,0.0,49,0.00,,,0.02,0.0,WeatherDisplay:10.37,2013-03-30 23:56:00,
2013-03-30 20:02:00,37.2,20.2,30.04,WNW,286,0.0,0.0,50,0.00,,,0.02,0.0,WeatherDisplay:10.37,2013-03-31 00:02:00,
2013-03-30 20:07:00,36.8,20.3,30.04,WNW,286,0.0,0.0,51,0.00,,,0.02,0.0,WeatherDisplay:10.37,2013-03-31 00:07:00,
2013-03-30 20:12:00,36.2,21.6,30.04,WNW,286,2.3,2.3,55,0.00,,,0.02,0.0,WeatherDisplay:10.37,2013-03-31 00:12:00,
2013-03-30 20:18:00,35.6,21.9,30.04,WNW,286,0.0,0.0,57,0.00,,,0.02,0.0,WeatherDisplay:10.37,2013-03-31 00:18:00,
2013-03-30 20:23:00,35.1,22.6,30.05,WNW,286,2.0,2.0,60,0.00,,,0.02,0.0,WeatherDisplay:10.37,2013-03-31 00:23:00,
2013-03-30 20:28:00,34.6,22.1,30.05,WNW,286,2.3,2.3,60,0.00,,,0.02,0.0,WeatherDisplay:10.37,2013-03-31 00:28:00,
2013-03-30 20:33:00,34.2,22.5,30.05,WNW,286,1.2,1.2,62,0.00,,,0.02,0.0,WeatherDisplay:10.37,2013-03-31 00:33:00,
2013-03-30 20:38:00,34.0,22.7,30.05,WNW,286,0.0,0.0,63,0.00,,,0.02,0.0,WeatherDisplay:10.37,2013-03-31 00:38:00,
2013-03-30 20:43:00,33.7,23.2,30.05,WNW,286,2.3,2.3,65,0.00,,,0.02,0.0,WeatherDisplay:10.37,2013-03-31 00:43:00,
2013-03-30 20:48:00,33.4,23.3,30.05,WNW,286,1.2,0.0,66,0.00,,,0.02,0.0,WeatherDisplay:10.37,2013-03-31 00:48:00,
2013-03-30 20:53:00,33.2,23.1,30.06,WNW,286,1.2,1.2,66,0.00,,,0.02,0.0,WeatherDisplay:10.37,2013-03-31 00:53:00,
2013-03-30 20:58:00,33.0,23.2,30.06,WNW,286,1.2,1.2,67,0.00,,,0.02,0.0,WeatherDisplay:10.37,2013-03-31 00:58:00,
2013-03-30 21:03:00,32.7,23.3,30.06,WNW,286,2.3,2.3,68,0.00,CLR,,0.02,0.0,WeatherDisplay:10.37,2013-03-31 01:03:00,
2013-03-30 21:08:00,32.5,23.5,30.06,WNW,286,2.3,2.3,69,0.00,CLR,,0.02,0.0,WeatherDisplay:10.37,2013-03-31 01:08:00,
2013-03-30 21:13:00,32.3,23.3,30.06,WNW,286,1.2,1.2,69,0.00,CLR,,0.02,0.0,WeatherDisplay:10.37,2013-03-31 01:13:00,
2013-03-30 21:18:00,32.2,22.8,30.06,WNW,286,2.3,2.3,68,0.00,CLR,,0.02,0.0,WeatherDisplay:10.37,2013-03-31 01:18:00,
2013-03-30 21:23:00,32.1,23.4,30.06,WNW,286,2.3,2.3,70,0.00,CLR,,0.02,0.0,WeatherDisplay:10.37,2013-03-31 01:23:00,
2013-03-30 21:28:00,32.0,24.0,30.06,WNW,286,2.3,2.3,72,0.00,CLR,,0.02,0.0,WeatherDisplay:10.37,2013-03-31 01:28:00,
2013-03-30 21:33:00,31.9,23.9,30.06,WNW,286,1.2,1.2,72,0.00,CLR,,0.02,0.0,WeatherDisplay:10.37,2013-03-31 01:33:00,
2013-03-30 21:38:00,31.8,22.8,30.06,WNW,286,1.2,1.2,69,0.00,CLR,,0.02,0.0,WeatherDisplay:10.37,2013-03-31 01:38:00,
2013-03-30 21:43:00,31.7,22.7,30.06,WNW,286,1.2,1.2,69,0.00,CLR,,0.02,0.0,WeatherDisplay:10.37,2013-03-31 01:43:00,
2013-03-30 21:48:00,31.5,23.2,30.06,WNW,286,2.3,2.3,71,0.00,CLR,,0.02,0.0,WeatherDisplay:10.37,2013-03-31 01:48:00,
2013-03-30 21:53:00,31.5,22.8,30.06,WNW,286,1.2,1.2,70,0.00,CLR,,0.02,0.0,WeatherDisplay:10.37,2013-03-31 01:53:00,
2013-03-30 21:59:00,31.4,22.7,30.06,WNW,286,2.3,2.3,70,0.00,CLR,,0.02,0.0,WeatherDisplay:10.37,2013-03-31 01:59:00,
2013-03-30 22:04:00,31.4,22.4,30.06,WNW,286,2.3,2.3,69,0.00,,,0.02,0.0,WeatherDisplay:10.37,2013-03-31 02:04:00,
2013-03-30 22:09:00,31.2,22.2,30.06,WNW,286,1.2,1.2,69,0.00,,,0.02,0.0,WeatherDisplay:10.37,2013-03-31 02:09:00,
2013-03-30 22:14:00,31.2,22.2,30.06,WNW,286,1.2,1.2,69,0.00,,,0.02,0.0,WeatherDisplay:10.37,2013-03-31 02:14:00,
2013-03-30 22:19:00,31.1,22.5,30.06,WNW,286,1.2,1.2,70,0.00,,,0.02,0.0,WeatherDisplay:10.37,2013-03-31 02:19:00,
2013-03-30 22:25:00,31.0,22.7,30.06,WNW,286,0.0,0.0,71,0.00,,,0.02,0.0,WeatherDisplay:10.37,2013-03-31 02:25:00,
2013-03-30 22:30:00,30.9,22.6,30.06,WNW,286,2.0,2.0,71,0.00,,,0.02,0.0,WeatherDisplay:10.37,2013-03-31 02:30:00,
2013-03-30 22:35:00,30.8,22.2,30.06,WNW,286,1.2,0.0,70,0.00,,,0.02,0.0,WeatherDisplay:10.37,2013-03-31 02:35:00,
2013-03-30 22:40:00,30.7,22.1,30.06,WNW,286,1.2,0.0,70,0.00,,,0.02,0.0,WeatherDisplay:10.37,2013-03-31 02:40:00,
2013-03-30 22:45:00,30.6,22.0,30.06,WNW,286,1.2,0.0,70,0.00,,,0.02,0.0,WeatherDisplay:10.37,2013-03-31 02:45:00,
2013-03-30 22:50:00,30.5,21.9,30.06,WNW,286,1.2,0.0,70,0.00,,,0.02,0.0,WeatherDisplay:10.37,2013-03-31 02:50:00,
2013-03-30 22:55:00,30.4,22.1,30.06,WNW,286,1.2,0.0,71,0.00,,,0.02,0.0,WeatherDisplay:10.37,2013-03-31 02:55:00,
2013-03-30 23:00:00,30.3,22.0,30.06,WNW,286,0.0,0.0,71,0.00,,,0.02,0.0,WeatherDisplay:10.37,2013-03-31 03:00:00,
2013-03-30 23:05:00,30.2,21.9,30.06,WNW,286,0.0,0.0,71,0.00,,,0.02,0.0,WeatherDisplay:10.37,2013-03-31 03:05:00,
2013-03-30 23:10:00,30.2,21.9,30.06,WNW,286,0.0,0.0,71,0.00,,,0.02,0.0,WeatherDisplay:10.37,2013-03-31 03:10:00,
2013-03-30 23:15:00,30.1,22.2,30.06,WNW,286,0.0,0.0,72,0.00,,,0.02,0.0,WeatherDisplay:10.37,2013-03-31 03:15:00,
2013-03-30 23:20:00,29.9,22.3,30.06,WNW,286,1.2,1.2,73,0.00,,,0.02,0.0,WeatherDisplay:10.37,2013-03-31 03:20:00,
2013-03-30 23:25:00,29.8,21.9,30.06,WNW,286,0.0,0.0,72,0.00,,,0.02,0.0,WeatherDisplay:10.37,2013-03-31 03:25:00,
2013-03-30 23:30:00,29.7,22.1,30.06,WNW,286,0.0,0.0,73,0.00,,,0.02,0.0,WeatherDisplay:10.37,2013-03-31 03:30:00,
2013-03-30 23:35:00,29.7,22.7,30.06,WNW,286,0.0,0.0,75,0.00,,,0.02,0.0,WeatherDisplay:10.37,2013-03-31 03:35:00,
2013-03-30 23:40:00,29.6,22.6,30.06,WNW,286,0.0,0.0,75,0.00,,,0.02,0.0,WeatherDisplay:10.37,2013-03-31 03:40:00,
2013-03-30 23:45:00,29.4,22.8,30.06,WNW,286,0.0,0.0,76,0.00,,,0.02,0.0,WeatherDisplay:10.37,2013-03-31 03:45:00,
2013-03-30 23:50:00,29.2,22.9,30.06,WNW,286,0.0,0.0,77,0.00,,,0.02,0.0,WeatherDisplay:10.37,2013-03-31 03:50:00,
2013-03-30 23:56:00,29.0,23.0,30.07,WNW,286,0.0,0.0,78,0.00,,,0.02,0.0,WeatherDisplay:10.37,2013-03-31 03:56:00,